TIME,PRES,T(CTD),SAL,OXYGEN,RAWTEMP,T(OPTODE),TCPHASE,CHECK
1342392334,306.7300109863281000,17.8644008636474600,36.5245018005371100,221.6427001953125000,263.4183959960937500,17.8676605224609380,31.3197593688964840,47304
1342392411,300.8800048828125000,17.8971996307373050,36.5299987792968750,222.3148956298828000,262.0737915039062500,17.9089202880859380,31.2666301727294920,23239
1342392492,294.7399902343750000,17.9501991271972660,36.5420989990234400,223.0473937988281200,260.6044921875000000,17.9540004730224600,31.2084503173828120,54026
1342392574,288.7699890136719000,17.9864006042480470,36.5452995300293000,223.0867004394531200,259.3624877929687500,17.9921092987060550,31.1895599365234380,23703
1342392656,282.9299926757812500,18.0198001861572270,36.5517005920410160,222.9028930664062500,258.2654113769531000,18.0257701873779300,31.1839694976806640,33132
1342392737,277.2200012207031000,17.9978008270263670,36.5385017395019500,219.4178924560547000,258.6500854492187500,18.0139598846435550,31.3699607849121100,3680
1342392828,270.9599914550781000,18.0671005249023440,36.5493011474609400,218.8419036865234400,257.1702880859375000,18.0593605041503900,31.3797702789306640,12277
1342392919,264.8999938964844000,18.0755004882812500,36.5485000610351560,218.2655944824218800,256.4739074707031000,18.0807304382324220,31.4001502990722660,43339
1342393017,259.5599975585937500,18.1135997772216800,36.5532989501953100,217.1985931396484400,255.2599029541015600,18.1179695129394530,31.4399299621582030,10987
1342393147,253.8200073242187500,18.1562004089355470,36.5596008300781250,217.2756042480468800,253.7879943847656200,18.1631202697753900,31.4153709411621100,29403
1342393286,247.6499938964843800,18.1851997375488280,36.5615005493164060,216.6423950195312500,252.8697967529297000,18.1912899017334000,31.4363498687744140,65222
1342393416,241.6600036621093800,18.2252998352050780,36.5643005371093750,215.8354949951172000,251.5697021484375000,18.2311706542968750,31.4612503051757800,57945
1342393546,235.6000061035156200,18.2611999511718750,36.5674018859863300,215.4257965087890600,250.3927001953125000,18.2672691345214840,31.4670600891113280,61246
1342393676,229.7899932861328000,18.3003005981445300,36.5726013183593750,214.7106933593750000,249.1109008789062500,18.3065891265869140,31.4874305725097660,64671
1342393816,223.9799957275390600,18.3913002014160160,36.5845985412597660,214.9882965087890600,246.2926940917968800,18.3930301666259770,31.4337806701660160,62909
1342394008,216.9299926757812500,18.4358005523681640,36.5901985168457000,214.9438934326172000,244.6757965087890600,18.4426307678222660,31.4138298034667970,11271
1342394120,211.5000000000000000,18.4694995880126950,36.5915985107421900,214.2062072753906200,243.6013031005859400,18.4755802154541000,31.4388198852539060,23489
1342394250,205.6799926757812500,18.5571002960205080,36.5984001159668000,212.9120025634765600,240.8186950683593800,18.5609207153320300,31.4702606201171880,7850
1342394389,199.7599945068359400,18.6166992187500000,36.5984001159668000,211.2933959960937500,238.9429016113281200,18.6184501647949220,31.5317192077636720,27309
1342394538,193.7200012207031200,18.6499004364013670,36.5964012145996100,211.8278045654297000,237.6732025146484400,18.6573905944824220,31.4855098724365230,65521
1342394665,187.0000000000000000,18.7238998413085940,36.5840988159179700,219.5966033935547000,235.3946075439453000,18.7272701263427730,31.0412597656250000,31087
1342394758,181.2200012207031200,18.7987003326416000,36.5816993713378900,214.9436950683593800,232.9010009765625000,18.8037490844726560,31.2525901794433600,56870
1342394864,175.1499938964843800,18.8817005157470700,36.5840988159179700,213.8325958251953000,230.3134002685547000,18.8831005096435550,31.2762508392334000,49971
1342394985,169.8000030517578000,18.8680000305175780,36.5610008239746100,209.6640930175781200,230.5348052978515600,18.8763103485107420,31.5056095123291000,50176
1342395134,163.6799926757812500,18.8834991455078120,36.5514984130859400,218.5169067382812500,230.0386962890625000,18.8915290832519530,31.0247001647949220,5319
1342395268,157.1499938964843800,18.9834995269775400,36.5671005249023440,226.1699066162109400,227.0863037109375000,18.9820709228515620,30.5935096740722660,37977
1342395370,151.1000061035156200,19.0147991180419920,36.5498008728027340,230.4682006835937500,225.8401947021484400,19.0202808380126950,30.3639602661132800,28646
1342395472,144.9600067138672000,18.9895000457763670,36.5332984924316400,228.6515960693359400,226.7133941650390600,18.9934997558593750,30.4650306701660160,51108
1342395563,139.3399963378906200,19.0014991760253900,36.5177001953125000,229.4725036621093800,226.2162017822265600,19.0087509155273440,30.4180793762207030,46567
1342395678,133.7299957275390600,19.0118999481201170,36.5182991027832000,226.7299957275390600,225.8558959960937500,19.0198001861572270,30.5491294860839840,11936
1342395836,127.9000015258789000,19.0807991027832030,36.5256996154785160,226.6228942871093800,224.1112060546875000,19.0733108520507800,30.5308895111084000,48057
1342395979,121.2699966430664000,19.1382007598876950,36.5317001342773440,229.3148956298828000,221.8648986816406200,19.1421909332275400,30.3674697875976560,13828
1342396100,115.8199996948242200,19.2773990631103500,36.5671997070312500,235.0388946533203000,217.4871063232422000,19.2764492034912100,30.0318107604980470,52874
1342396296,108.5800018310546900,19.3731994628906250,36.5859985351562500,239.1259002685547000,214.1405029296875000,19.3790893554687500,29.7945899963378900,37971
1342396426,102.4199981689453100,19.3719005584716800,36.5733985900878900,239.5274963378906200,214.2373046875000000,19.3761196136474600,29.7773208618164060,28368
1342396547,96.1600036621093800,19.4606990814209000,36.5800018310546900,239.7799072265625000,211.2239990234375000,19.4685401916503900,29.7257003784179700,50546
1342396649,90.0000000000000000,19.5356006622314450,36.5792999267578100,241.8088073730468800,208.8105010986328000,19.5425605773925780,29.6001205444335940,46862
1342396740,83.8700027465820300,19.6401996612548830,36.5797996520996100,247.7203979492187500,205.0908050537109400,19.6566505432128900,29.2837104797363280,22335
1342396828,78.6699981689453100,19.7556991577148440,36.5862998962402340,254.2115936279297000,201.7586059570312500,19.7588691711425780,28.9551506042480470,35137
1342396968,72.8399963378906200,19.9445991516113280,36.5913009643554700,259.8572998046875000,195.8404998779297000,19.9404201507568360,28.6382808685302730,6387
1342397140,66.8600006103515600,20.2005996704101560,36.6045989990234400,260.3299865722656000,187.8659973144531200,20.1851100921630860,28.5162506103515620,5736
1342397286,60.4199981689453100,20.6329994201660160,36.6160011291503900,260.3723144531250000,173.3262023925781200,20.6314201354980470,28.3292999267578120,43586
1342397398,54.3199996948242200,21.0519008636474600,36.5994987487793000,259.5129089355469000,159.9022064208984400,21.0437507629394530,28.1954803466796880,44243
1342397519,48.8100013732910160,21.4475002288818360,36.6004981994628900,257.6122131347656000,147.2568969726562500,21.4324398040771500,28.1158790588378900,8466
1342397668,43.2299995422363300,21.9144001007080080,36.5443000793457000,258.4862060546875000,132.6564941406250000,21.8816509246826170,27.8966102600097660,28276
1342397823,36.6300010681152340,22.4171009063720700,36.5191993713378900,258.5255126953125000,116.3831024169921900,22.3829593658447270,27.6928596496582030,32741
1342398075,31.1299991607666000,22.8754997253417970,36.4589004516601560,257.5315856933594000,101.2082977294921900,22.8511199951171880,27.5466194152832030,46879
1342398239,25.0699996948242200,23.8481006622314450,36.4035987854003900,251.4618072509765600,70.8566436767578100,23.7898807525634770,27.4282207489013670,34550
1342398386,19.1000003814697270,24.4174003601074220,36.4179992675781250,246.9781951904297000,51.0686988830566400,24.4038906097412100,27.3774299621582030,56413
1342398749,13.6899995803833000,26.6753997802734380,36.3954010009765600,230.1669006347656200,-20.8145008087158200,26.6510791778564450,27.2473106384277340,43333
1342398989,6.2399997711181640,26.7670001983642580,36.4067993164062500,228.8244018554687500,-25.3113403320312500,26.7926692962646500,27.2544002532959000,1716
1342399103,1.8600000143051147,0.0000000000000000,0.0000000000000000,227.9736022949218800,-34.5347785949707000,27.0835094451904300,27.1813392639160160,40216
